User: anonymous   Login
Location: Choisy
(48.7685°N, 2.4187°E)
Time: 03:37:13
(UTC+00:00)
Language:

Okean-O - Orbit

View from above orbital plane
View from above orbital plane
View from above satellite
View from above satellite

Ground track
Ground track

The orbit data is extracted from the following two-line orbital elements,

1 25860U 99039A   22021.57052792  .00000213  00000-0  37890-4 0  9992
2 25860  98.1596  60.0174 0001568 110.3844 249.7534 14.76813894211571
Epoch (UTC): 21 January 2022 13:41:33
Eccentricity: 0.0001568
inclination: 98.1596°
perigee height: 638 km
apogee height: 640 km
right ascension of ascending node: 60.0174°
argument of perigee: 110.3844°
revolutions per day: 14.76813894
mean anomaly at epoch: 249.7534°
orbit number at epoch: 21157

The dashed part of the orbit path shows where the satellite is in the earth's shadow,  

DLR